Location: Unspecified
(22.6800°N, 112.2000°E)
Time: 01:23:36
(UTC+08:00)

Courier 1B Rocket - Pass Details

Date: 09 August 2021
Orbit: 920 x 1202 km, 28.3° (Epoch: 17 September)

Event Time Altitude Azimuth Distance (km) Brightness Sun altitude
Rises 22:35:20 0° 259° (W) 4,084 8.6 -41.5°
Reaches altitude 10° 22:38:14 10° 261° (W) 3,107 7.9 -41.9°
Enters shadow 22:40:55 24° 265° (W) 2,239 7.0 -42.3°
